Location: Daytona Beach
(29.2106°N, 81.0231°W)
Time: 09:32:08
(UTC-04:00)

SRMSAT - Visible Passes

Search period start: 24 September 2021 00:00
Search period end: 04 October 2021 00:00
Orbit: 848 x 865 km, 20.0° (Epoch: 23 September)

Date Brightness Start Highest point End Pass type
(mag) Time Alt. Az. Time Alt. Az. Time Alt. Az.
26 Sep ? 06:10:55 10° S 06:12:41 11° SSE 06:14:27 10° SE visible
27 Sep ? 05:57:01 10° S 05:59:34 13° SSE 06:02:08 10° SE visible
28 Sep ? 05:43:22 10° SSW 05:46:28 14° SSE 05:49:34 10° SE visible
29 Sep ? 05:31:09 13° S 05:33:21 16° SSE 05:36:52 10° SE visible
30 Sep ? 05:19:06 17° S 05:20:15 18° SSE 05:24:06 10° ESE visible
01 Oct ? 05:07:02 19° SSE 05:07:08 19° SSE 05:11:16 10° ESE visible
01 Oct ? 06:50:40 10° SW 06:55:49 31° S 07:00:58 10° ESE visible
02 Oct ? 04:54:56 20° SSE 04:54:56 20° SSE 04:58:23 10° ESE visible
02 Oct ? 06:37:32 10° WSW 06:42:42 32° S 06:47:55 10° ESE visible
03 Oct ? 04:42:50 20° SE 04:42:50 20° SE 04:45:28 10° ESE visible
03 Oct ? 06:24:49 12° WSW 06:29:37 33° S 06:34:51 10° ESE visible
